| time (UTC) | temp C | wind direction | speed KPH | gust KPH | rain 1hr cm | rain 24hr cm | rain mn cm | humidity % | barometer mb |
| 20260507133003 | 12 | 10 | 11.3 | 24.1 | 0.00 | 0.23 | 0.00 | 88 | 1019.6 |
| 20260507132829 | 12 | 19 | 12.9 | 24.1 | 0.00 | 0.23 | 0.00 | 88 | 1020.2 |
| 20260507132554 | 12 | 41 | 12.9 | 24.1 | 0.00 | 0.23 | 0.00 | 88 | 1019.8 |
| 20260507132325 | 13 | 68 | 12.9 | 24.1 | 0.00 | 0.23 | 0.00 | 88 | 1020.5 |
| 20260507132050 | 12 | 18 | 6.4 | 20.9 | 0.00 | 0.23 | 0.00 | 88 | 1020.0 |
| 20260507131842 | 12 | 359 | 9.7 | 20.9 | 0.00 | 0.23 | 0.00 | 88 | 1020.4 |
| 20260507131530 | 12 | 28 | 9.7 | 24.1 | 0.00 | 0.23 | 0.00 | 88 | 1019.8 |
| 20260507131317 | 12 | 27 | 12.9 | 24.1 | 0.00 | 0.23 | 0.00 | 88 | 1020.4 |
| 20260507131016 | 12 | 4 | 11.3 | 24.1 | 0.00 | 0.23 | 0.00 | 88 | 1019.8 |
| 20260507130814 | 12 | 37 | 14.5 | 25.7 | 0.00 | 0.23 | 0.00 | 88 | 1020.5 |
| 20260507130559 | 12 | 37 | 9.7 | 25.7 | 0.00 | 0.23 | 0.00 | 88 | 1020.0 |
| 20260507130330 | 12 | 339 | 9.7 | 25.7 | 0.00 | 0.23 | 0.00 | 88 | 1020.5 |
| 20260507130053 | 12 | 75 | 11.3 | 25.7 | 0.00 | 0.23 | 0.00 | 88 | 1020.1 |
| 20260507125846 | 12 | 9 | 11.3 | 17.7 | 0.00 | 0.23 | 0.00 | 88 | 1020.7 |
| 20260507125525 | 12 | 25 | 8.0 | 17.7 | 0.00 | 0.23 | 0.00 | 88 | 1020.2 |
| 20260507125342 | 12 | 354 | 4.8 | 19.3 | 0.00 | 0.23 | 0.00 | 88 | 1021.0 |
| 20260507125051 | 12 | 15 | 8.0 | 19.3 | 0.00 | 0.23 | 0.00 | 88 | 1020.2 |
| 20260507124817 | 12 | 38 | 8.0 | 19.3 | 0.00 | 0.23 | 0.00 | 88 | 1020.7 |
| 20260507124538 | 12 | 53 | 6.4 | 19.3 | 0.00 | 0.23 | 0.00 | 88 | 1020.1 |
| 20260507124314 | 12 | 62 | 9.7 | 19.3 | 0.00 | 0.23 | 0.00 | 88 | 1020.6 |
| 20260507124029 | 12 | 48 | 9.7 | 19.3 | 0.00 | 0.23 | 0.00 | 88 | 1020.0 |
| 20260507123831 | 12 | 16 | 6.4 | 19.3 | 0.00 | 0.23 | 0.00 | 88 | 1020.8 |
| 20260507123516 | 12 | 84 | 8.0 | 19.3 | 0.00 | 0.23 | 0.00 | 88 | 1020.1 |
| 20260507123325 | 12 | 56 | 9.7 | 19.3 | 0.00 | 0.23 | 0.00 | 88 | 1020.6 |
| 20260507123006 | 12 | 42 | 6.4 | 14.5 | 0.00 | 0.23 | 0.00 | 88 | 1019.9 |
| 20260507122842 | 12 | 50 | 8.0 | 16.1 | 0.00 | 0.23 | 0.00 | 88 | 1020.4 |
| 20260507122538 | 12 | 44 | 4.8 | 16.1 | 0.00 | 0.23 | 0.00 | 88 | 1019.8 |
| 20260507122316 | 12 | 4 | 4.8 | 16.1 | 0.00 | 0.23 | 0.00 | 88 | 1020.3 |
| 20260507122030 | 12 | 359 | 8.0 | 16.1 | 0.00 | 0.23 | 0.00 | 88 | 1019.6 |
| 20260507121831 | 12 | 36 | 9.7 | 16.1 | 0.00 | 0.23 | 0.00 | 88 | 1020.3 |
| 20260507121526 | 12 | 28 | 6.4 | 17.7 | 0.00 | 0.23 | 0.00 | 88 | 1019.8 |
| 20260507121328 | 12 | 27 | 6.4 | 20.9 | 0.00 | 0.23 | 0.00 | 88 | 1020.4 |
| 20260507121007 | 12 | 25 | 4.8 | 20.9 | 0.00 | 0.23 | 0.00 | 88 | 1019.8 |
| 20260507120824 | 12 | 26 | 11.3 | 22.5 | 0.00 | 0.23 | 0.00 | 88 | 1020.4 |
| 20260507120603 | 12 | 34 | 9.7 | 22.5 | 0.00 | 0.23 | 0.00 | 88 | 1019.7 |
| 20260507120319 | 12 | 359 | 9.7 | 22.5 | 0.00 | 0.23 | 0.00 | 88 | 1020.2 |
| 20260507120055 | 12 | 25 | 8.0 | 19.3 | 0.00 | 0.25 | 0.00 | 88 | 1019.5 |
| 20260507115814 | 12 | 14 | 9.7 | 19.3 | 0.00 | 0.25 | 0.00 | 88 | 1020.2 |
| 20260507115547 | 12 | 39 | 11.3 | 19.3 | 0.00 | 0.25 | 0.00 | 88 | 1019.7 |
| 20260507115326 | 12 | 4 | 12.9 | 19.3 | 0.00 | 0.25 | 0.00 | 88 | 1020.3 |
| 20260507115036 | 12 | 359 | 11.3 | 17.7 | 0.00 | 0.25 | 0.00 | 88 | 1019.7 |
| 20260507114821 | 12 | 341 | 11.3 | 17.7 | 0.00 | 0.25 | 0.00 | 88 | 1020.3 |
| 20260507114526 | 12 | 34 | 8.0 | 17.7 | 0.00 | 0.25 | 0.00 | 88 | 1019.6 |
| 20260507114317 | 12 | 8 | 9.7 | 17.7 | 0.00 | 0.25 | 0.00 | 88 | 1020.1 |
| 20260507114010 | 12 | 83 | 11.3 | 17.7 | 0.00 | 0.25 | 0.00 | 88 | 1019.6 |
| 20260507113853 | 12 | 23 | 8.0 | 17.7 | 0.00 | 0.25 | 0.00 | 88 | 1020.3 |
| 20260507113542 | 12 | 25 | 8.0 | 14.5 | 0.00 | 0.25 | 0.00 | 88 | 1019.9 |
| 20260507113327 | 12 | 31 | 8.0 | 14.5 | 0.00 | 0.25 | 0.00 | 88 | 1020.4 |
| 20260507113005 | 12 | 359 | 6.4 | 14.5 | 0.00 | 0.25 | 0.00 | 88 | 1019.6 |
| 20260507112823 | 12 | 359 | 6.4 | 14.5 | 0.00 | 0.25 | 0.00 | 88 | 1020.3 |
| 20260507112558 | 12 | 48 | 6.4 | 22.5 | 0.00 | 0.25 | 0.00 | 88 | 1019.6 |
| 20260507112319 | 12 | 27 | 8.0 | 22.5 | 0.00 | 0.25 | 0.00 | 88 | 1020.3 |
| 20260507112048 | 12 | 24 | 8.0 | 22.5 | 0.00 | 0.25 | 0.00 | 88 | 1019.5 |
| 20260507111814 | 12 | 8 | 9.7 | 22.5 | 0.00 | 0.25 | 0.00 | 88 | 1020.1 |
| 20260507111544 | 12 | 8 | 9.7 | 19.3 | 0.00 | 0.25 | 0.00 | 88 | 1019.3 |
| 20260507111329 | 12 | 52 | 9.7 | 19.3 | 0.00 | 0.25 | 0.00 | 88 | 1019.9 |
| 20260507111004 | 12 | 62 | 8.0 | 20.9 | 0.00 | 0.25 | 0.00 | 88 | 1019.2 |
| 20260507110824 | 12 | 32 | 11.3 | 20.9 | 0.00 | 0.25 | 0.00 | 88 | 1019.8 |
| 20260507110600 | 12 | 8 | 11.3 | 20.9 | 0.00 | 0.25 | 0.00 | 88 | 1019.2 |
| 20260507110321 | 12 | 15 | 12.9 | 22.5 | 0.00 | 0.25 | 0.00 | 88 | 1019.7 |
| 20260507110057 | 12 | 16 | 11.3 | 24.1 | 0.00 | 0.25 | 0.00 | 87 | 1019.1 |
| 20260507105837 | 12 | 49 | 11.3 | 25.7 | 0.00 | 0.25 | 0.00 | 87 | 1019.8 |
| 20260507105524 | 12 | 359 | 12.9 | 25.7 | 0.00 | 0.25 | 0.00 | 87 | 1018.9 |
| 20260507105332 | 12 | 31 | 14.5 | 25.7 | 0.00 | 0.25 | 0.00 | 87 | 1019.5 |
| 20260507105016 | 12 | 43 | 9.7 | 22.5 | 0.00 | 0.25 | 0.00 | 87 | 1018.9 |
| 20260507104827 | 12 | 27 | 9.7 | 22.5 | 0.00 | 0.25 | 0.00 | 87 | 1019.7 |
| 20260507104507 | 12 | 27 | 9.7 | 24.1 | 0.00 | 0.25 | 0.00 | 87 | 1019.2 |
| 20260507104323 | 12 | 8 | 9.7 | 24.1 | 0.00 | 0.25 | 0.00 | 87 | 1019.8 |
| 20260507104059 | 12 | 30 | 14.5 | 24.1 | 0.00 | 0.25 | 0.00 | 87 | 1019.0 |
| 20260507103819 | 12 | 28 | 12.9 | 24.1 | 0.00 | 0.25 | 0.00 | 87 | 1019.6 |
| 20260507103554 | 12 | 18 | 8.0 | 19.3 | 0.00 | 0.25 | 0.00 | 87 | 1018.8 |
| 20260507103317 | 12 | 9 | 9.7 | 19.3 | 0.00 | 0.25 | 0.00 | 87 | 1019.5 |
| 20260507103043 | 12 | 35 | 9.7 | 25.7 | 0.00 | 0.25 | 0.00 | 87 | 1018.8 |
| 20260507102825 | 13 | 27 | 11.3 | 25.7 | 0.00 | 0.25 | 0.00 | 87 | 1019.5 |
| 20260507102534 | 12 | 27 | 14.5 | 25.7 | 0.00 | 0.25 | 0.00 | 87 | 1019.0 |
| 20260507102321 | 13 | 37 | 14.5 | 25.7 | 0.00 | 0.25 | 0.00 | 87 | 1019.6 |
| 20260507102027 | 12 | 31 | 11.3 | 24.1 | 0.00 | 0.25 | 0.00 | 87 | 1019.1 |
| 20260507101818 | 13 | 350 | 14.5 | 24.1 | 0.00 | 0.25 | 0.00 | 87 | 1019.8 |
| 20260507101511 | 12 | 34 | 4.8 | 17.7 | 0.00 | 0.25 | 0.00 | 88 | 1019.1 |
| 20260507101314 | 13 | 359 | 4.8 | 19.3 | 0.00 | 0.25 | 0.00 | 88 | 1019.9 |
| 20260507101005 | 12 | 16 | 3.2 | 20.9 | 0.00 | 0.25 | 0.00 | 88 | 1018.9 |
| 20260507100830 | 13 | 60 | 8.0 | 20.9 | 0.00 | 0.25 | 0.00 | 88 | 1019.4 |
| 20260507100602 | 12 | 359 | 11.3 | 20.9 | 0.00 | 0.25 | 0.00 | 88 | 1018.6 |
| 20260507100324 | 13 | 4 | 12.9 | 20.9 | 0.00 | 0.25 | 0.00 | 88 | 1019.2 |
| 20260507100034 | 12 | 359 | 11.3 | 19.3 | 0.00 | 0.25 | 0.00 | 88 | 1018.5 |
| 20260507095839 | 13 | 26 | 9.7 | 19.3 | 0.00 | 0.25 | 0.00 | 88 | 1019.2 |
| 20260507095558 | 12 | 16 | 6.4 | 16.1 | 0.00 | 0.25 | 0.00 | 88 | 1018.8 |
| 20260507095314 | 13 | 28 | 9.7 | 16.1 | 0.00 | 0.25 | 0.00 | 88 | 1019.7 |
| 20260507095048 | 12 | 359 | 6.4 | 19.3 | 0.00 | 0.25 | 0.00 | 88 | 1018.7 |
| 20260507094832 | 13 | 12 | 9.7 | 19.3 | 0.00 | 0.25 | 0.00 | 88 | 1019.3 |
| 20260507094546 | 12 | 14 | 8.0 | 20.9 | 0.00 | 0.25 | 0.00 | 88 | 1018.2 |
| 20260507094329 | 13 | 346 | 11.3 | 24.1 | 0.00 | 0.25 | 0.00 | 88 | 1019.0 |
| 20260507094031 | 12 | 19 | 9.7 | 24.1 | 0.00 | 0.25 | 0.00 | 88 | 1018.1 |
| 20260507093823 | 13 | 50 | 14.5 | 24.1 | 0.00 | 0.25 | 0.00 | 88 | 1018.9 |
| 20260507093525 | 13 | 44 | 8.0 | 19.3 | 0.00 | 0.25 | 0.00 | 89 | 1018.3 |
| 20260507093320 | 13 | 35 | 9.7 | 19.3 | 0.00 | 0.25 | 0.00 | 89 | 1019.1 |
| 20260507093025 | 13 | 25 | 11.3 | 19.3 | 0.00 | 0.25 | 0.00 | 89 | 1018.6 |
| 20260507092815 | 13 | 14 | 8.0 | 20.9 | 0.00 | 0.25 | 0.00 | 89 | 1019.4 |
| 20260507092502 | 13 | 4 | 9.7 | 20.9 | 0.00 | 0.25 | 0.00 | 89 | 1018.4 |
| 20260507092327 | 13 | 31 | 9.7 | 20.9 | 0.00 | 0.25 | 0.00 | 89 | 1019.1 |
| 20260507092054 | 13 | 34 | 12.9 | 19.3 | 0.00 | 0.25 | 0.00 | 89 | 1018.0 |
| 20260507091822 | 13 | 29 | 9.7 | 19.3 | 0.00 | 0.25 | 0.00 | 90 | 1018.7 |
| 20260507091600 | 13 | 19 | 8.0 | 14.5 | 0.00 | 0.25 | 0.00 | 89 | 1018.3 |
| 20260507091318 | 13 | 354 | 8.0 | 14.5 | 0.00 | 0.25 | 0.00 | 89 | 1019.2 |
| 20260507091040 | 13 | 15 | 6.4 | 12.9 | 0.00 | 0.25 | 0.00 | 89 | 1018.2 |
| 20260507090814 | 13 | 4 | 4.8 | 17.7 | 0.00 | 0.25 | 0.00 | 89 | 1019.1 |
| 20260507090534 | 13 | 23 | 4.8 | 17.7 | 0.00 | 0.25 | 0.00 | 89 | 1018.6 |
| 20260507090330 | 13 | 24 | 8.0 | 17.7 | 0.00 | 0.25 | 0.00 | 89 | 1019.1 |
| 20260507090028 | 13 | 46 | 8.0 | 16.1 | 0.00 | 0.25 | 0.00 | 89 | 1018.2 |
| 20260507085825 | 13 | 21 | 6.4 | 16.1 | 0.00 | 0.25 | 0.00 | 89 | 1019.5 |
| 20260507085510 | 13 | 27 | 3.2 | 16.1 | 0.00 | 0.25 | 0.00 | 89 | 1018.7 |
| 20260507085342 | 13 | 66 | 8.0 | 16.1 | 0.00 | 0.25 | 0.00 | 89 | 1019.0 |
| 20260507085042 | 13 | 345 | 4.8 | 17.7 | 0.00 | 0.25 | 0.00 | 89 | 1018.1 |
| 20260507084816 | 13 | 75 | 4.8 | 17.7 | 0.00 | 0.25 | 0.00 | 89 | 1018.8 |
| 20260507084536 | 13 | 333 | 9.7 | 17.7 | 0.00 | 0.25 | 0.00 | 89 | 1017.6 |
| 20260507084332 | 13 | 11 | 12.9 | 17.7 | 0.00 | 0.25 | 0.00 | 89 | 1018.2 |
| 20260507084030 | 13 | 21 | 6.4 | 16.1 | 0.00 | 0.25 | 0.00 | 89 | 1017.5 |
| 20260507083829 | 13 | 354 | 4.8 | 16.1 | 0.00 | 0.25 | 0.00 | 89 | 1018.4 |
| 20260507083510 | 13 | 33 | 6.4 | 17.7 | 0.00 | 0.25 | 0.00 | 89 | 1017.7 |
| 20260507083325 | 13 | 4 | 6.4 | 17.7 | 0.00 | 0.25 | 0.00 | 89 | 1018.5 |
| 20260507083002 | 13 | 20 | 9.7 | 17.7 | 0.00 | 0.25 | 0.00 | 89 | 1017.6 |
| 20260507082840 | 13 | 42 | 8.0 | 17.7 | 0.00 | 0.25 | 0.00 | 89 | 1018.4 |
| 20260507082552 | 13 | 32 | 4.8 | 16.1 | 0.00 | 0.25 | 0.00 | 89 | 1017.7 |
| 20260507082330 | 13 | 354 | 6.4 | 16.1 | 0.00 | 0.25 | 0.00 | 89 | 1018.4 |
| 20260507082046 | 13 | 48 | 4.8 | 14.5 | 0.00 | 0.25 | 0.00 | 89 | 1017.5 |
| 20260507081826 | 13 | 62 | 4.8 | 14.5 | 0.00 | 0.25 | 0.00 | 89 | 1018.3 |
| 20260507081550 | 13 | 48 | 4.8 | 11.3 | 0.00 | 0.25 | 0.00 | 89 | 1017.4 |
| 20260507081321 | 13 | 26 | 4.8 | 14.5 | 0.00 | 0.25 | 0.00 | 89 | 1018.4 |
| 20260507081030 | 13 | 68 | 6.4 | 17.7 | 0.00 | 0.25 | 0.00 | 89 | 1017.3 |
| 20260507080817 | 13 | 55 | 6.4 | 17.7 | 0.00 | 0.25 | 0.00 | 89 | 1018.2 |
| 20260507080517 | 13 | 73 | 6.4 | 17.7 | 0.00 | 0.25 | 0.00 | 89 | 1017.4 |
| 20260507080353 | 13 | 71 | 4.8 | 12.9 | 0.00 | 0.25 | 0.00 | 89 | 1018.2 |
| 20260507080048 | 13 | 48 | 4.8 | 11.3 | 0.00 | 0.25 | 0.00 | 89 | 1017.2 |
| 20260507075848 | 13 | 18 | 4.8 | 11.3 | 0.00 | 0.25 | 0.00 | 89 | 1018.1 |
| 20260507075512 | 13 | 46 | 6.4 | 14.5 | 0.00 | 0.25 | 0.00 | 89 | 1017.1 |
| 20260507075323 | 13 | 76 | 8.0 | 14.5 | 0.00 | 0.25 | 0.00 | 88 | 1017.9 |
| 20260507075009 | 13 | 52 | 8.0 | 17.7 | 0.00 | 0.25 | 0.00 | 88 | 1017.0 |
| 20260507074820 | 13 | 65 | 6.4 | 17.7 | 0.00 | 0.25 | 0.00 | 88 | 1017.7 |
| 20260507074600 | 13 | 91 | 9.7 | 17.7 | 0.00 | 0.25 | 0.00 | 88 | 1016.9 |
| 20260507074317 | 13 | 62 | 6.4 | 14.5 | 0.00 | 0.25 | 0.00 | 88 | 1017.8 |
| 20260507074051 | 13 | 52 | 3.2 | 9.7 | 0.00 | 0.25 | 0.00 | 88 | 1016.8 |
| 20260507073814 | 13 | 63 | 6.4 | 9.7 | 0.00 | 0.25 | 0.00 | 88 | 1017.5 |
| 20260507073542 | 13 | 64 | 6.4 | 16.1 | 0.00 | 0.25 | 0.00 | 88 | 1016.5 |
| 20260507073330 | 13 | 105 | 6.4 | 16.1 | 0.00 | 0.25 | 0.00 | 88 | 1017.4 |
| 20260507073044 | 13 | 45 | 3.2 | 16.1 | 0.00 | 0.25 | 0.00 | 88 | 1016.5 |
| 20260507072826 | 13 | 59 | 8.0 | 16.1 | 0.00 | 0.25 | 0.00 | 88 | 1017.3 |
| 20260507072526 | 13 | 50 | 4.8 | 14.5 | 0.00 | 0.25 | 0.00 | 88 | 1016.3 |
| 20260507072342 | 13 | 40 | 6.4 | 14.5 | 0.00 | 0.25 | 0.00 | 88 | 1017.3 |
| 20260507072050 | 13 | 49 | 4.8 | 20.9 | 0.00 | 0.25 | 0.00 | 88 | 1016.4 |
| 20260507071817 | 13 | 54 | 6.4 | 20.9 | 0.00 | 0.25 | 0.00 | 88 | 1017.2 |
| 20260507071544 | 13 | 29 | 4.8 | 20.9 | 0.00 | 0.25 | 0.00 | 88 | 1016.3 |
| 20260507071332 | 13 | 37 | 9.7 | 20.9 | 0.00 | 0.25 | 0.00 | 88 | 1017.0 |
| 20260507071008 | 13 | 41 | 6.4 | 14.5 | 0.00 | 0.25 | 0.00 | 88 | 1016.2 |
| 20260507070848 | 13 | 36 | 8.0 | 14.5 | 0.00 | 0.25 | 0.00 | 88 | 1017.0 |
| 20260507070542 | 13 | 31 | 4.8 | 14.5 | 0.00 | 0.25 | 0.00 | 88 | 1016.1 |
| 20260507070324 | 13 | 359 | 4.8 | 14.5 | 0.00 | 0.25 | 0.00 | 88 | 1017.0 |
| 20260507070041 | 13 | 45 | 6.4 | 14.5 | 0.00 | 0.25 | 0.00 | 88 | 1016.2 |
| 20260507065820 | 13 | 92 | 8.0 | 14.5 | 0.00 | 0.25 | 0.00 | 88 | 1017.2 |
| 20260507065521 | 13 | 47 | 6.4 | 14.5 | 0.00 | 0.25 | 0.00 | 88 | 1016.2 |
| 20260507065352 | 13 | 48 | 6.4 | 17.7 | 0.00 | 0.25 | 0.00 | 88 | 1017.1 |
| 20260507065054 | 13 | 39 | 4.8 | 17.7 | 0.00 | 0.25 | 0.00 | 88 | 1016.2 |
| 20260507064827 | 13 | 56 | 6.4 | 17.7 | 0.00 | 0.25 | 0.00 | 88 | 1017.0 |
| 20260507064528 | 13 | 50 | 6.4 | 17.7 | 0.00 | 0.25 | 0.00 | 88 | 1016.0 |
| 20260507064324 | 13 | 77 | 6.4 | 14.5 | 0.00 | 0.25 | 0.00 | 88 | 1016.9 |
| 20260507064024 | 13 | 69 | 8.0 | 14.5 | 0.00 | 0.25 | 0.00 | 88 | 1016.1 |
| 20260507063819 | 13 | 45 | 8.0 | 14.5 | 0.00 | 0.25 | 0.00 | 88 | 1017.0 |
| 20260507063518 | 13 | 39 | 4.8 | 14.5 | 0.00 | 0.25 | 0.00 | 87 | 1016.2 |
| 20260507063315 | 13 | 64 | 6.4 | 14.5 | 0.00 | 0.25 | 0.00 | 87 | 1017.1 |
| 20260507063104 | 13 | 54 | 6.4 | 14.5 | 0.00 | 0.25 | 0.00 | 87 | 1016.1 |
| 20260507062852 | 13 | 45 | 6.4 | 14.5 | 0.00 | 0.25 | 0.00 | 88 | 1017.1 |
| 20260507062536 | 13 | 51 | 6.4 | 12.9 | 0.00 | 0.25 | 0.00 | 87 | 1016.3 |
| 20260507062329 | 13 | 63 | 6.4 | 12.9 | 0.00 | 0.25 | 0.00 | 87 | 1017.3 |
| 20260507062030 | 13 | 57 | 4.8 | 12.9 | 0.00 | 0.25 | 0.00 | 87 | 1016.3 |
| 20260507061825 | 13 | 48 | 4.8 | 11.3 | 0.00 | 0.25 | 0.00 | 87 | 1017.2 |
| 20260507061530 | 13 | 37 | 4.8 | 11.3 | 0.00 | 0.25 | 0.00 | 87 | 1016.2 |
| 20260507061321 | 13 | 35 | 6.4 | 14.5 | 0.00 | 0.25 | 0.00 | 87 | 1017.2 |
| 20260507061008 | 13 | 39 | 6.4 | 14.5 | 0.00 | 0.25 | 0.00 | 87 | 1016.3 |
| 20260507060818 | 13 | 48 | 6.4 | 14.5 | 0.00 | 0.25 | 0.00 | 87 | 1017.2 |
| 20260507060602 | 13 | 23 | 4.8 | 14.5 | 0.00 | 0.25 | 0.00 | 87 | 1016.3 |
| 20260507060313 | 13 | 24 | 8.0 | 14.5 | 0.00 | 0.25 | 0.00 | 87 | 1017.2 |
| 20260507060058 | 13 | 64 | 3.2 | 12.9 | 0.00 | 0.25 | 0.00 | 87 | 1016.3 |
| 20260507055837 | 13 | 18 | 4.8 | 12.9 | 0.00 | 0.25 | 0.00 | 87 | 1017.3 |
| 20260507055600 | 13 | 70 | 4.8 | 14.5 | 0.00 | 0.25 | 0.00 | 87 | 1016.4 |
| 20260507055332 | 14 | 62 | 6.4 | 14.5 | 0.00 | 0.25 | 0.00 | 87 | 1017.3 |
| 20260507055034 | 13 | 58 | 4.8 | 14.5 | 0.00 | 0.25 | 0.00 | 87 | 1016.4 |
| 20260507054828 | 14 | 359 | 8.0 | 14.5 | 0.00 | 0.25 | 0.00 | 87 | 1017.4 |
| 20260507054526 | 13 | 53 | 6.4 | 12.9 | 0.00 | 0.25 | 0.00 | 86 | 1016.4 |
| 20260507054325 | 14 | 62 | 4.8 | 12.9 | 0.00 | 0.25 | 0.00 | 86 | 1017.4 |
| 20260507054021 | 13 | 55 | 6.4 | 11.3 | 0.00 | 0.25 | 0.00 | 86 | 1016.5 |
| 20260507053822 | 14 | 76 | 6.4 | 12.9 | 0.00 | 0.25 | 0.00 | 86 | 1017.5 |
| 20260507053504 | 13 | 56 | 6.4 | 14.5 | 0.00 | 0.25 | 0.00 | 86 | 1016.6 |
| 20260507053319 | 14 | 62 | 4.8 | 14.5 | 0.00 | 0.25 | 0.00 | 86 | 1017.6 |
| 20260507053058 | 13 | 58 | 6.4 | 14.5 | 0.00 | 0.25 | 0.00 | 86 | 1016.7 |
| 20260507052815 | 14 | 87 | 6.4 | 14.5 | 0.00 | 0.25 | 0.00 | 86 | 1017.6 |
| 20260507052551 | 13 | 50 | 4.8 | 14.5 | 0.00 | 0.25 | 0.00 | 86 | 1016.4 |
| 20260507052352 | 14 | 52 | 6.4 | 14.5 | 0.00 | 0.25 | 0.00 | 86 | 1017.4 |
| 20260507052024 | 14 | 60 | 6.4 | 14.5 | 0.00 | 0.25 | 0.00 | 86 | 1016.5 |
| 20260507051826 | 14 | 57 | 8.0 | 14.5 | 0.00 | 0.25 | 0.00 | 86 | 1017.6 |
| 20260507051504 | 14 | 60 | 6.4 | 14.5 | 0.00 | 0.25 | 0.00 | 86 | 1016.6 |
| 20260507051342 | 14 | 66 | 6.4 | 14.5 | 0.00 | 0.25 | 0.00 | 86 | 1017.6 |
| 20260507051035 | 14 | 44 | 6.4 | 14.5 | 0.00 | 0.25 | 0.00 | 86 | 1016.5 |
| 20260507050817 | 14 | 43 | 6.4 | 14.5 | 0.00 | 0.25 | 0.00 | 86 | 1017.6 |
| 20260507050531 | 14 | 50 | 9.7 | 16.1 | 0.00 | 0.25 | 0.00 | 86 | 1016.6 |
| 20260507050332 | 14 | 46 | 8.0 | 16.1 | 0.00 | 0.25 | 0.00 | 86 | 1017.6 |
| 20260507050119 | 14 | 57 | 8.0 | 16.1 | 0.00 | 0.25 | 0.00 | 86 | 1016.6 |
| 20260507045819 | 14 | 25 | 9.7 | 16.1 | 0.00 | 0.25 | 0.25 | 86 | 1017.6 |
| 20260507045550 | 14 | 60 | 4.8 | 16.1 | 0.00 | 0.25 | 0.25 | 86 | 1016.6 |
| 20260507045314 | 14 | 35 | 4.8 | 16.1 | 0.00 | 0.25 | 0.25 | 86 | 1017.6 |
| 20260507045042 | 14 | 82 | 8.0 | 16.1 | 0.00 | 0.25 | 0.25 | 86 | 1016.5 |
| 20260507044845 | 14 | 62 | 6.4 | 16.1 | 0.00 | 0.25 | 0.25 | 86 | 1017.4 |
| 20260507044515 | 14 | 57 | 8.0 | 16.1 | 0.00 | 0.25 | 0.25 | 86 | 1016.3 |
| 20260507044341 | 14 | 25 | 6.4 | 12.9 | 0.00 | 0.25 | 0.25 | 86 | 1017.4 |
| 20260507044054 | 14 | 38 | 6.4 | 11.3 | 0.00 | 0.25 | 0.25 | 86 | 1016.2 |
| 20260507043830 | 14 | 54 | 4.8 | 14.5 | 0.00 | 0.25 | 0.25 | 86 | 1017.3 |
| 20260507043548 | 14 | 78 | 6.4 | 14.5 | 0.00 | 0.25 | 0.25 | 85 | 1016.2 |
| 20260507043324 | 15 | 32 | 4.8 | 14.5 | 0.00 | 0.25 | 0.25 | 85 | 1017.2 |
| 20260507043023 | 14 | 44 | 4.8 | 11.3 | 0.00 | 0.25 | 0.25 | 86 | 1016.2 |
| 20260507042821 | 15 | 19 | 4.8 | 11.3 | 0.00 | 0.25 | 0.25 | 86 | 1017.2 |
| 20260507042507 | 14 | 43 | 4.8 | 14.5 | 0.00 | 0.25 | 0.25 | 85 | 1016.2 |
| 20260507042339 | 15 | 36 | 6.4 | 14.5 | 0.00 | 0.25 | 0.25 | 85 | 1017.3 |
| 20260507042038 | 14 | 64 | 6.4 | 14.5 | 0.00 | 0.25 | 0.25 | 85 | 1016.2 |
| 20260507041815 | 15 | 70 | 6.4 | 14.5 | 0.00 | 0.25 | 0.25 | 85 | 1017.3 |
| 20260507041528 | 14 | 60 | 4.8 | 11.3 | 0.00 | 0.25 | 0.25 | 85 | 1016.1 |
| 20260507041331 | 15 | 66 | 4.8 | 14.5 | 0.00 | 0.25 | 0.25 | 85 | 1017.1 |
| 20260507041013 | 14 | 56 | 3.2 | 14.5 | 0.00 | 0.25 | 0.25 | 85 | 1016.0 |
| 20260507040826 | 15 | 54 | 6.4 | 17.7 | 0.00 | 0.25 | 0.25 | 85 | 1017.0 |
| 20260507040507 | 14 | 58 | 4.8 | 19.3 | 0.00 | 0.25 | 0.25 | 85 | 1015.8 |
| 20260507040325 | 15 | 51 | 6.4 | 19.3 | 0.00 | 0.25 | 0.25 | 85 | 1016.9 |
| 20260507040058 | 15 | 62 | 9.7 | 19.3 | 0.00 | 0.25 | 0.25 | 85 | 1015.6 |
| 20260507035821 | 15 | 61 | 8.0 | 19.3 | 0.00 | 0.25 | 0.25 | 85 | 1016.7 |
| 20260507035548 | 15 | 49 | 6.4 | 16.1 | 0.00 | 0.25 | 0.25 | 85 | 1015.5 |
| 20260507035316 | 15 | 54 | 9.7 | 16.1 | 0.00 | 0.25 | 0.25 | 85 | 1016.6 |
| 20260507035042 | 15 | 48 | 6.4 | 16.1 | 0.00 | 0.25 | 0.25 | 85 | 1015.5 |
| 20260507034851 | 15 | 58 | 8.0 | 16.1 | 0.00 | 0.25 | 0.25 | 85 | 1016.6 |
| 20260507034508 | 15 | 61 | 4.8 | 14.5 | 0.00 | 0.25 | 0.25 | 85 | 1015.7 |
| 20260507034347 | 15 | 67 | 6.4 | 14.5 | 0.00 | 0.25 | 0.25 | 85 | 1016.8 |
| 20260507034038 | 15 | 48 | 6.4 | 14.5 | 0.00 | 0.25 | 0.25 | 85 | 1015.7 |
| 20260507033823 | 15 | 50 | 8.0 | 16.1 | 0.00 | 0.25 | 0.25 | 85 | 1016.9 |
| 20260507033530 | 15 | 70 | 6.4 | 16.1 | 0.00 | 0.25 | 0.25 | 85 | 1015.8 |
| 20260507033320 | 15 | 52 | 6.4 | 16.1 | 0.00 | 0.25 | 0.25 | 85 | 1017.0 |
| 20260507033024 | 15 | 60 | 6.4 | 14.5 | 0.00 | 0.25 | 0.25 | 85 | 1015.8 |
| 20260507032815 | 15 | 80 | 8.0 | 14.5 | 0.00 | 0.25 | 0.25 | 84 | 1016.9 |
| 20260507032510 | 15 | 51 | 4.8 | 16.1 | 0.00 | 0.25 | 0.25 | 84 | 1015.8 |
| 20260507032331 | 15 | 61 | 6.4 | 16.1 | 0.00 | 0.25 | 0.25 | 84 | 1017.0 |
| 20260507032006 | 15 | 18 | 6.4 | 16.1 | 0.00 | 0.25 | 0.25 | 84 | 1015.7 |
| 20260507031827 | 15 | 49 | 9.7 | 16.1 | 0.00 | 0.25 | 0.25 | 84 | 1016.8 |
| 20260507031554 | 15 | 25 | 6.4 | 14.5 | 0.00 | 0.25 | 0.25 | 84 | 1015.6 |
| 20260507031322 | 15 | 39 | 6.4 | 12.9 | 0.00 | 0.25 | 0.25 | 84 | 1016.7 |
| 20260507031048 | 15 | 33 | 6.4 | 12.9 | 0.00 | 0.25 | 0.25 | 84 | 1015.7 |
| 20260507030816 | 15 | 45 | 6.4 | 12.9 | 0.00 | 0.25 | 0.25 | 84 | 1016.8 |
| 20260507030539 | 15 | 8 | 4.8 | 16.1 | 0.00 | 0.25 | 0.25 | 84 | 1015.6 |
| 20260507030352 | 15 | 29 | 6.4 | 16.1 | 0.00 | 0.25 | 0.25 | 84 | 1017.0 |
| 20260507030005 | 15 | 23 | 6.4 | 16.1 | 0.00 | 0.25 | 0.25 | 84 | 1015.8 |
| 20260507025846 | 16 | 18 | 8.0 | 16.1 | 0.00 | 0.25 | 0.25 | 84 | 1016.9 |
| 20260507025538 | 15 | 18 | 4.8 | 14.5 | 0.00 | 0.25 | 0.25 | 84 | 1015.9 |
| 20260507025321 | 16 | 4 | 6.4 | 14.5 | 0.00 | 0.25 | 0.25 | 84 | 1017.1 |
| 20260507025030 | 15 | 23 | 4.8 | 14.5 | 0.00 | 0.25 | 0.25 | 84 | 1015.9 |
| 20260507024816 | 16 | 12 | 6.4 | 14.5 | 0.00 | 0.25 | 0.25 | 84 | 1017.1 |
| 20260507024512 | 15 | 359 | 6.4 | 14.5 | 0.00 | 0.25 | 0.25 | 84 | 1015.9 |
| 20260507024350 | 16 | 354 | 6.4 | 14.5 | 0.00 | 0.25 | 0.25 | 84 | 1017.2 |
| 20260507024049 | 15 | 359 | 6.4 | 14.5 | 0.00 | 0.25 | 0.25 | 84 | 1015.8 |
| 20260507023845 | 16 | 359 | 4.8 | 14.5 | 0.00 | 0.25 | 0.25 | 84 | 1017.0 |
| 20260507023527 | 15 | 354 | 6.4 | 14.5 | 0.00 | 0.25 | 0.25 | 84 | 1015.8 |
| 20260507023341 | 16 | 16 | 4.8 | 14.5 | 0.00 | 0.25 | 0.25 | 85 | 1016.9 |
| 20260507023044 | 15 | 32 | 3.2 | 14.5 | 0.00 | 0.25 | 0.25 | 85 | 1015.8 |
| 20260507022815 | 16 | 14 | 6.4 | 14.5 | 0.00 | 0.25 | 0.25 | 85 | 1016.9 |
| 20260507022538 | 15 | 26 | 1.6 | 8.0 | 0.00 | 0.25 | 0.25 | 85 | 1015.7 |
| 20260507022332 | 16 | 10 | 4.8 | 8.0 | 0.00 | 0.25 | 0.25 | 85 | 1016.9 |
| 20260507022031 | 15 | 31 | 1.6 | 8.0 | 0.00 | 0.25 | 0.25 | 85 | 1015.8 |
| 20260507021828 | 16 | 346 | 3.2 | 9.7 | 0.00 | 0.25 | 0.25 | 85 | 1016.9 |
| 20260507021514 | 15 | 359 | 3.2 | 9.7 | 0.00 | 0.25 | 0.25 | 85 | 1015.6 |
| 20260507021325 | 16 | 21 | 4.8 | 9.7 | 0.00 | 0.25 | 0.25 | 85 | 1016.7 |
| 20260507021010 | 15 | 10 | 4.8 | 9.7 | 0.00 | 0.25 | 0.25 | 85 | 1015.4 |
| 20260507020821 | 16 | 16 | 4.8 | 9.7 | 0.00 | 0.25 | 0.25 | 85 | 1016.6 |
| 20260507020600 | 15 | 15 | 3.2 | 12.9 | 0.00 | 0.25 | 0.25 | 85 | 1015.4 |
| 20260507020317 | 16 | 35 | 3.2 | 12.9 | 0.00 | 0.25 | 0.25 | 85 | 1016.6 |
| 20260507020106 | 15 | 16 | 4.8 | 12.9 | 0.00 | 0.25 | 0.25 | 85 | 1015.3 |
| 20260507015833 | 16 | 359 | 6.4 | 12.9 | 0.00 | 0.25 | 0.25 | 85 | 1016.5 |
| 20260507015550 | 15 | 11 | 3.2 | 12.9 | 0.00 | 0.25 | 0.25 | 85 | 1015.1 |
| 20260507015330 | 16 | 22 | 6.4 | 12.9 | 0.00 | 0.25 | 0.25 | 85 | 1016.3 |
| 20260507015044 | 15 | 39 | 3.2 | 9.7 | 0.00 | 0.25 | 0.25 | 85 | 1015.1 |
| 20260507014827 | 16 | 359 | 4.8 | 9.7 | 0.00 | 0.25 | 0.25 | 85 | 1016.5 |
| 20260507014539 | 15 | 28 | 3.2 | 9.7 | 0.00 | 0.25 | 0.25 | 85 | 1015.2 |
| 20260507014323 | 16 | 10 | 4.8 | 9.7 | 0.00 | 0.25 | 0.25 | 85 | 1016.5 |
| 20260507014026 | 15 | 359 | 4.8 | 9.7 | 0.00 | 0.25 | 0.25 | 85 | 1015.1 |
| 20260507013820 | 16 | 19 | 4.8 | 9.7 | 0.00 | 0.25 | 0.25 | 85 | 1016.4 |
| 20260507013520 | 15 | 53 | 1.6 | 9.7 | 0.00 | 0.25 | 0.25 | 85 | 1014.8 |
| 20260507013317 | 16 | 53 | 3.2 | 9.7 | 0.00 | 0.25 | 0.25 | 85 | 1016.1 |
| 20260507013013 | 15 | 35 | 1.6 | 9.7 | 0.00 | 0.25 | 0.25 | 84 | 1014.7 |
| 20260507012832 | 16 | 27 | 1.6 | 9.7 | 0.00 | 0.25 | 0.25 | 84 | 1016.0 |
| 20260507012607 | 15 | 39 | 4.8 | 9.7 | 0.00 | 0.25 | 0.25 | 84 | 1014.8 |
| 20260507012328 | 16 | 25 | 4.8 | 9.7 | 0.00 | 0.25 | 0.25 | 84 | 1016.1 |
| 20260507012054 | 15 | 41 | 3.2 | 9.7 | 0.00 | 0.25 | 0.25 | 84 | 1014.6 |
| 20260507011844 | 16 | 34 | 3.2 | 9.7 | 0.00 | 0.25 | 0.25 | 84 | 1016.1 |
| 20260507011532 | 15 | 33 | 4.8 | 8.0 | 0.00 | 0.25 | 0.25 | 84 | 1014.7 |
| 20260507011320 | 16 | 73 | 4.8 | 8.0 | 0.00 | 0.25 | 0.25 | 84 | 1016.0 |
| 20260507011021 | 15 | 41 | 1.6 | 12.9 | 0.00 | 0.25 | 0.25 | 84 | 1014.5 |
| 20260507010816 | 16 | 51 | 4.8 | 12.9 | 0.00 | 0.25 | 0.25 | 84 | 1015.7 |
| 20260507010518 | 15 | 4 | 4.8 | 12.9 | 0.00 | 0.25 | 0.25 | 84 | 1014.1 |
| 20260507010332 | 16 | 33 | 6.4 | 11.3 | 0.00 | 0.25 | 0.25 | 84 | 1015.3 |
| 20260507010111 | 15 | 18 | 4.8 | 11.3 | 0.00 | 0.25 | 0.25 | 84 | 1013.7 |
| 20260507005829 | 16 | 8 | 8.0 | 12.9 | 0.00 | 0.25 | 0.25 | 84 | 1015.1 |
| 20260507005552 | 16 | 9 | 4.8 | 11.3 | 0.00 | 0.25 | 0.25 | 84 | 1013.8 |
| 20260507005324 | 16 | 34 | 4.8 | 11.3 | 0.00 | 0.25 | 0.25 | 84 | 1015.1 |
| 20260507005046 | 16 | 24 | 4.8 | 11.3 | 0.00 | 0.25 | 0.25 | 84 | 1013.6 |
| 20260507004821 | 16 | 32 | 3.2 | 11.3 | 0.00 | 0.25 | 0.25 | 84 | 1015.1 |
| 20260507004541 | 16 | 41 | 3.2 | 11.3 | 0.00 | 0.25 | 0.25 | 84 | 1013.6 |
| 20260507004318 | 16 | 28 | 4.8 | 16.1 | 0.00 | 0.25 | 0.25 | 84 | 1015.1 |
| 20260507004030 | 16 | 27 | 4.8 | 16.1 | 0.00 | 0.25 | 0.25 | 84 | 1013.5 |
| 20260507003815 | 16 | 50 | 8.0 | 16.1 | 0.00 | 0.25 | 0.25 | 83 | 1015.0 |
| 20260507003516 | 16 | 359 | 3.2 | 12.9 | 0.00 | 0.25 | 0.25 | 84 | 1013.5 |
| 20260507003331 | 16 | 20 | 6.4 | 12.9 | 0.00 | 0.25 | 0.25 | 84 | 1014.9 |
| 20260507003012 | 16 | 4 | 4.8 | 9.7 | 0.00 | 0.25 | 0.25 | 84 | 1013.5 |
| 20260507002828 | 16 | 19 | 4.8 | 12.9 | 0.00 | 0.25 | 0.25 | 84 | 1014.8 |
| 20260507002504 | 16 | 14 | 3.2 | 12.9 | 0.00 | 0.25 | 0.25 | 84 | 1013.4 |
| 20260507002324 | 16 | 25 | 4.8 | 12.9 | 0.00 | 0.25 | 0.25 | 84 | 1014.7 |
| 20260507002101 | 16 | 43 | 4.8 | 12.9 | 0.00 | 0.25 | 0.25 | 84 | 1013.3 |
| 20260507001820 | 16 | 19 | 4.8 | 12.9 | 0.00 | 0.25 | 0.25 | 84 | 1014.8 |
| 20260507001558 | 16 | 36 | 4.8 | 12.9 | 0.00 | 0.25 | 0.25 | 84 | 1013.4 |
| 20260507001317 | 16 | 27 | 6.4 | 12.9 | 0.00 | 0.25 | 0.25 | 84 | 1014.8 |
| 20260507001046 | 16 | 4 | 4.8 | 12.9 | 0.00 | 0.25 | 0.25 | 84 | 1013.3 |
| 20260507000832 | 16 | 9 | 6.4 | 12.9 | 0.00 | 0.25 | 0.25 | 84 | 1014.8 |
| 20260507000536 | 16 | 15 | 6.4 | 16.1 | 0.00 | 0.25 | 0.25 | 84 | 1013.4 |
| 20260507000328 | 16 | 17 | 6.4 | 16.1 | 0.00 | 0.25 | 0.25 | 84 | 1014.7 |
| 20260507000030 | 16 | 11 | 6.4 | 16.1 | 0.00 | 0.25 | 0.25 | 84 | 1013.2 |
| 20260506235824 | 16 | 19 | 8.0 | 16.1 | 0.00 | 0.25 | 0.25 | 84 | 1014.7 |
| 20260506235524 | 16 | 354 | 6.4 | 12.9 | 0.00 | 0.25 | 0.25 | 84 | 1013.2 |
| 20260506235319 | 16 | 29 | 8.0 | 12.9 | 0.00 | 0.25 | 0.25 | 84 | 1014.6 |
| 20260506235017 | 16 | 10 | 4.8 | 16.1 | 0.00 | 0.25 | 0.25 | 84 | 1013.0 |
| 20260506234815 | 16 | 14 | 6.4 | 16.1 | 0.00 | 0.25 | 0.25 | 84 | 1014.6 |
| 20260506234507 | 16 | 33 | 8.0 | 16.1 | 0.00 | 0.25 | 0.25 | 84 | 1013.0 |
| 20260506234333 | 16 | 14 | 8.0 | 16.1 | 0.00 | 0.25 | 0.25 | 84 | 1014.6 |
| 20260506234002 | 16 | 24 | 6.4 | 16.1 | 0.00 | 0.25 | 0.25 | 84 | 1013.1 |
| 20260506233829 | 16 | 32 | 8.0 | 16.1 | 0.00 | 0.25 | 0.25 | 84 | 1014.5 |
| 20260506233556 | 16 | 33 | 4.8 | 12.9 | 0.00 | 0.25 | 0.25 | 84 | 1013.0 |
| 20260506233324 | 16 | 23 | 6.4 | 12.9 | 0.00 | 0.25 | 0.25 | 84 | 1014.6 |
| 20260506233052 | 16 | 4 | 4.8 | 9.7 | 0.00 | 0.25 | 0.25 | 84 | 1013.2 |
| 20260506232840 | 16 | 41 | 3.2 | 9.7 | 0.00 | 0.25 | 0.25 | 85 | 1014.7 |
| 20260506232517 | 16 | 14 | 4.8 | 9.7 | 0.00 | 0.25 | 0.25 | 84 | 1013.3 |
| 20260506232316 | 16 | 4 | 4.8 | 9.7 | 0.00 | 0.25 | 0.25 | 84 | 1014.9 |
| 20260506232002 | 16 | 359 | 4.8 | 12.9 | 0.00 | 0.25 | 0.25 | 84 | 1013.3 |
| 20260506231849 | 16 | 9 | 4.8 | 12.9 | 0.00 | 0.25 | 0.25 | 84 | 1014.8 |
| 20260506231534 | 16 | 19 | 4.8 | 12.9 | 0.00 | 0.25 | 0.25 | 84 | 1013.3 |
| 20260506231343 | 16 | 27 | 8.0 | 14.5 | 0.00 | 0.25 | 0.25 | 84 | 1014.6 |
| 20260506231100 | 15 | 23 | 3.2 | 14.5 | 0.00 | 0.25 | 0.25 | 85 | 1013.3 |
| 20260506230820 | 16 | 17 | 4.8 | 14.5 | 0.00 | 0.25 | 0.25 | 85 | 1014.7 |
| 20260506230556 | 15 | 348 | 8.0 | 14.5 | 0.00 | 0.25 | 0.25 | 84 | 1013.1 |
| 20260506230317 | 16 | 26 | 8.0 | 12.9 | 0.00 | 0.25 | 0.25 | 84 | 1014.7 |
| 20260506230050 | 15 | 20 | 4.8 | 14.5 | 0.00 | 0.25 | 0.25 | 84 | 1013.2 |
| 20260506225832 | 16 | 33 | 4.8 | 17.7 | 0.00 | 0.25 | 0.25 | 84 | 1014.7 |
| 20260506225538 | 15 | 62 | 4.8 | 17.7 | 0.00 | 0.25 | 0.25 | 84 | 1013.2 |
| 20260506225327 | 16 | 35 | 8.0 | 17.7 | 0.00 | 0.25 | 0.25 | 84 | 1014.7 |
| 20260506225035 | 15 | 21 | 8.0 | 17.7 | 0.00 | 0.25 | 0.25 | 85 | 1013.3 |
| 20260506224845 | 16 | 354 | 3.2 | 16.1 | 0.00 | 0.25 | 0.25 | 85 | 1014.7 |
| 20260506224559 | 15 | 354 | 4.8 | 16.1 | 0.00 | 0.25 | 0.25 | 85 | 1013.0 |
| 20260506224321 | 16 | 42 | 8.0 | 16.1 | 0.00 | 0.25 | 0.25 | 84 | 1014.4 |
| 20260506224049 | 15 | 14 | 6.4 | 17.7 | 0.00 | 0.25 | 0.25 | 85 | 1013.0 |
| 20260506223818 | 16 | 43 | 6.4 | 17.7 | 0.00 | 0.25 | 0.25 | 85 | 1014.6 |
| 20260506223542 | 15 | 16 | 9.7 | 17.7 | 0.00 | 0.25 | 0.25 | 85 | 1012.9 |
| 20260506223315 | 15 | 14 | 8.0 | 17.7 | 0.00 | 0.25 | 0.25 | 86 | 1014.3 |
| 20260506223036 | 15 | 316 | 3.2 | 17.7 | 0.00 | 0.25 | 0.25 | 86 | 1012.7 |
| 20260506222831 | 15 | 354 | 8.0 | 17.7 | 0.00 | 0.25 | 0.25 | 85 | 1014.5 |
| 20260506222530 | 15 | 359 | 11.3 | 17.7 | 0.00 | 0.25 | 0.25 | 85 | 1012.8 |
| 20260506222328 | 15 | 20 | 11.3 | 17.7 | 0.00 | 0.25 | 0.25 | 85 | 1014.2 |
| 20260506222012 | 15 | 30 | 9.7 | 17.7 | 0.00 | 0.25 | 0.25 | 85 | 1012.6 |
| 20260506221826 | 15 | 28 | 11.3 | 17.7 | 0.00 | 0.25 | 0.25 | 85 | 1014.2 |
| 20260506221506 | 15 | 345 | 6.4 | 19.3 | 0.00 | 0.25 | 0.25 | 86 | 1012.8 |
| 20260506221322 | 15 | 21 | 9.7 | 19.3 | 0.00 | 0.25 | 0.25 | 85 | 1014.5 |
| 20260506221101 | 15 | 359 | 12.9 | 19.3 | 0.00 | 0.25 | 0.25 | 85 | 1012.7 |
| 20260506220838 | 15 | 359 | 12.9 | 19.3 | 0.00 | 0.25 | 0.25 | 85 | 1014.2 |
| 20260506220527 | 15 | 21 | 9.7 | 19.3 | 0.00 | 0.25 | 0.25 | 85 | 1012.6 |
| 20260506220333 | 15 | 359 | 11.3 | 17.7 | 0.00 | 0.25 | 0.25 | 85 | 1014.5 |
| 20260506220014 | 15 | 60 | 8.0 | 16.1 | 0.00 | 0.25 | 0.25 | 86 | 1012.8 |
| 20260506215849 | 15 | 346 | 8.0 | 16.1 | 0.00 | 0.25 | 0.25 | 86 | 1014.3 |
| 20260506215552 | 15 | 341 | 8.0 | 19.3 | 0.00 | 0.25 | 0.25 | 86 | 1012.7 |
| 20260506215326 | 15 | 35 | 8.0 | 19.3 | 0.00 | 0.25 | 0.25 | 87 | 1014.4 |
| 20260506215042 | 14 | 30 | 9.7 | 19.3 | 0.00 | 0.25 | 0.25 | 86 | 1012.7 |
| 20260506214823 | 15 | 354 | 12.9 | 19.3 | 0.00 | 0.25 | 0.25 | 86 | 1014.3 |
| 20260506214539 | 14 | 350 | 9.7 | 16.1 | 0.00 | 0.25 | 0.25 | 86 | 1013.0 |
| 20260506214320 | 15 | 326 | 11.3 | 14.5 | 0.00 | 0.25 | 0.25 | 87 | 1014.7 |
| 20260506214032 | 14 | 13 | 6.4 | 14.5 | 0.00 | 0.25 | 0.25 | 86 | 1013.0 |
| 20260506213817 | 15 | 354 | 8.0 | 19.3 | 0.00 | 0.25 | 0.25 | 87 | 1014.8 |
| 20260506213531 | 14 | 15 | 8.0 | 19.3 | 0.00 | 0.25 | 0.25 | 87 | 1013.1 |
| 20260506213333 | 14 | 26 | 9.7 | 19.3 | 0.00 | 0.25 | 0.25 | 87 | 1014.4 |
| 20260506213016 | 14 | 316 | 11.3 | 16.1 | 0.00 | 0.25 | 0.25 | 87 | 1012.9 |
| 20260506212830 | 14 | 345 | 11.3 | 17.7 | 0.00 | 0.25 | 0.25 | 87 | 1014.7 |
| 20260506212507 | 14 | 359 | 6.4 | 17.7 | 0.00 | 0.25 | 0.25 | 87 | 1013.4 |
| 20260506212328 | 14 | 359 | 8.0 | 17.7 | 0.00 | 0.25 | 0.25 | 87 | 1015.2 |
| 20260506212102 | 14 | 330 | 9.7 | 17.7 | 0.00 | 0.25 | 0.25 | 87 | 1013.6 |
| 20260506211824 | 14 | 345 | 9.7 | 19.3 | 0.00 | 0.25 | 0.25 | 87 | 1015.1 |
| 20260506211552 | 13 | 346 | 9.7 | 19.3 | 0.00 | 0.25 | 0.25 | 88 | 1013.6 |
| 20260506211339 | 14 | 359 | 12.9 | 19.3 | 0.00 | 0.25 | 0.25 | 87 | 1015.3 |
| 20260506211023 | 13 | 327 | 12.9 | 19.3 | 0.00 | 0.25 | 0.25 | 87 | 1013.6 |
| 20260506210836 | 14 | 359 | 14.5 | 19.3 | 0.00 | 0.25 | 0.25 | 87 | 1015.1 |
| 20260506210547 | 13 | 10 | 6.4 | 19.3 | 0.00 | 0.25 | 0.25 | 88 | 1013.5 |
| 20260506210331 | 14 | 359 | 9.7 | 19.3 | 0.00 | 0.25 | 0.25 | 87 | 1015.3 |
| 20260506210049 | 13 | 21 | 11.3 | 19.3 | 0.00 | 0.25 | 0.25 | 87 | 1013.6 |
| 20260506205828 | 14 | 359 | 9.7 | 19.3 | 0.00 | 0.25 | 0.25 | 87 | 1015.2 |
| 20260506205533 | 13 | 335 | 9.7 | 20.9 | 0.00 | 0.25 | 0.25 | 87 | 1013.6 |
| 20260506205324 | 14 | 21 | 12.9 | 20.9 | 0.00 | 0.25 | 0.25 | 87 | 1015.2 |
| 20260506205024 | 13 | 322 | 12.9 | 20.9 | 0.00 | 0.25 | 0.25 | 87 | 1013.5 |
| 20260506204817 | 14 | 354 | 12.9 | 19.3 | 0.00 | 0.25 | 0.25 | 87 | 1015.2 |
| 20260506204548 | 13 | 338 | 9.7 | 17.7 | 0.00 | 0.25 | 0.25 | 88 | 1013.4 |
| 20260506204332 | 14 | 21 | 11.3 | 17.7 | 0.00 | 0.25 | 0.25 | 88 | 1015.2 |
| 20260506204037 | 13 | 343 | 8.0 | 17.7 | 0.00 | 0.25 | 0.25 | 88 | 1013.5 |
| 20260506203828 | 14 | 327 | 9.7 | 20.9 | 0.00 | 0.25 | 0.25 | 88 | 1015.3 |
| 20260506203527 | 13 | 359 | 11.3 | 20.9 | 0.00 | 0.25 | 0.25 | 88 | 1013.6 |
| 20260506203326 | 13 | 359 | 9.7 | 20.9 | 0.00 | 0.25 | 0.25 | 88 | 1015.4 |
| 20260506203025 | 13 | 337 | 9.7 | 19.3 | 0.00 | 0.25 | 0.25 | 88 | 1013.7 |
| 20260506202821 | 13 | 324 | 9.7 | 19.3 | 0.00 | 0.25 | 0.25 | 88 | 1015.3 |
| 20260506202505 | 13 | 359 | 11.3 | 19.3 | 0.00 | 0.25 | 0.25 | 88 | 1013.4 |
| 20260506202319 | 13 | 336 | 11.3 | 19.3 | 0.00 | 0.25 | 0.25 | 88 | 1015.1 |
| 20260506202103 | 13 | 346 | 8.0 | 20.9 | 0.00 | 0.25 | 0.25 | 88 | 1013.3 |
| 20260506201854 | 13 | 33 | 11.3 | 20.9 | 0.00 | 0.25 | 0.25 | 88 | 1015.3 |
| 20260506201542 | 13 | 354 | 12.9 | 20.9 | 0.00 | 0.25 | 0.25 | 88 | 1013.6 |
| 20260506201328 | 13 | 31 | 11.3 | 25.7 | 0.00 | 0.25 | 0.25 | 88 | 1015.4 |
| 20260506201014 | 13 | 25 | 8.0 | 25.7 | 0.00 | 0.25 | 0.25 | 88 | 1013.7 |
| 20260506200824 | 13 | 12 | 12.9 | 25.7 | 0.00 | 0.25 | 0.25 | 88 | 1015.4 |
| 20260506200505 | 13 | 354 | 9.7 | 22.5 | 0.00 | 0.25 | 0.25 | 88 | 1013.7 |
| 20260506200340 | 13 | 29 | 12.9 | 22.5 | 0.00 | 0.25 | 0.25 | 88 | 1015.4 |
| 20260506200055 | 13 | 4 | 8.0 | 22.5 | 0.00 | 0.25 | 0.25 | 88 | 1013.6 |
| 20260506195830 | 13 | 323 | 14.5 | 22.5 | 0.00 | 0.25 | 0.25 | 88 | 1015.4 |
| 20260506195545 | 13 | 354 | 14.5 | 22.5 | 0.00 | 0.25 | 0.25 | 88 | 1013.5 |
| 20260506195326 | 13 | 320 | 9.7 | 19.3 | 0.00 | 0.25 | 0.25 | 89 | 1015.5 |
| 20260506195039 | 13 | 359 | 11.3 | 19.3 | 0.00 | 0.25 | 0.25 | 89 | 1013.5 |
| 20260506194822 | 13 | 354 | 11.3 | 19.3 | 0.00 | 0.25 | 0.25 | 89 | 1015.3 |
| 20260506194529 | 13 | 337 | 8.0 | 19.3 | 0.00 | 0.25 | 0.25 | 89 | 1013.7 |
| 20260506194317 | 13 | 359 | 12.9 | 19.3 | 0.00 | 0.25 | 0.25 | 89 | 1015.5 |
| 20260506194019 | 13 | 359 | 9.7 | 19.3 | 0.03 | 0.25 | 0.25 | 89 | 1013.6 |
| 20260506193814 | 13 | 10 | 9.7 | 19.3 | 0.03 | 0.25 | 0.25 | 89 | 1015.5 |
| 20260506193506 | 13 | 324 | 14.5 | 19.3 | 0.03 | 0.25 | 0.25 | 89 | 1013.8 |
| 20260506193329 | 13 | 359 | 12.9 | 19.3 | 0.03 | 0.25 | 0.25 | 89 | 1015.6 |
| 20260506193101 | 13 | 342 | 11.3 | 19.3 | 0.03 | 0.25 | 0.25 | 89 | 1013.7 |
| 20260506192825 | 13 | 342 | 14.5 | 19.3 | 0.03 | 0.25 | 0.25 | 89 | 1015.4 |
| 20260506192557 | 13 | 359 | 12.9 | 20.9 | 0.03 | 0.25 | 0.25 | 89 | 1013.5 |
| 20260506192342 | 13 | 4 | 11.3 | 22.5 | 0.03 | 0.25 | 0.25 | 90 | 1015.4 |
| 20260506192027 | 13 | 14 | 12.9 | 22.5 | 0.03 | 0.25 | 0.25 | 89 | 1013.5 |
| 20260506191836 | 13 | 321 | 14.5 | 22.5 | 0.03 | 0.25 | 0.25 | 89 | 1015.5 |
| 20260506191555 | 13 | 342 | 14.5 | 20.9 | 0.03 | 0.25 | 0.25 | 89 | 1013.7 |
| 20260506191331 | 13 | 343 | 12.9 | 17.7 | 0.03 | 0.25 | 0.25 | 89 | 1015.5 |
| 20260506191046 | 13 | 346 | 8.0 | 17.7 | 0.03 | 0.25 | 0.25 | 90 | 1013.7 |
| 20260506190829 | 13 | 4 | 11.3 | 17.7 | 0.03 | 0.25 | 0.25 | 90 | 1015.6 |
| 20260506190543 | 12 | 347 | 8.0 | 19.3 | 0.03 | 0.25 | 0.25 | 90 | 1013.9 |
| 20260506190325 | 13 | 319 | 12.9 | 19.3 | 0.03 | 0.25 | 0.25 | 90 | 1015.8 |
| 20260506190032 | 13 | 324 | 11.3 | 19.3 | 0.03 | 0.25 | 0.25 | 90 | 1013.7 |
| 20260506185822 | 13 | 359 | 8.0 | 19.3 | 0.03 | 0.25 | 0.25 | 90 | 1015.6 |
| 20260506185527 | 13 | 359 | 9.7 | 19.3 | 0.03 | 0.25 | 0.25 | 90 | 1013.8 |
| 20260506185319 | 13 | 359 | 8.0 | 17.7 | 0.03 | 0.25 | 0.25 | 90 | 1015.6 |
| 20260506185014 | 13 | 354 | 8.0 | 19.3 | 0.03 | 0.25 | 0.25 | 90 | 1013.9 |
| 20260506184814 | 13 | 347 | 9.7 | 19.3 | 0.03 | 0.25 | 0.25 | 90 | 1015.8 |
| 20260506184505 | 13 | 324 | 9.7 | 19.3 | 0.03 | 0.25 | 0.25 | 90 | 1013.9 |
| 20260506184331 | 13 | 16 | 11.3 | 19.3 | 0.03 | 0.25 | 0.25 | 89 | 1015.6 |
| 20260506184059 | 12 | 33 | 9.7 | 20.9 | 0.00 | 0.23 | 0.23 | 89 | 1013.7 |
| 20260506183827 | 13 | 359 | 9.7 | 20.9 | 0.00 | 0.23 | 0.23 | 89 | 1015.8 |
| 20260506183555 | 12 | 4 | 9.7 | 22.5 | 0.00 | 0.23 | 0.23 | 89 | 1014.3 |
| 20260506183324 | 13 | 16 | 11.3 | 22.5 | 0.00 | 0.23 | 0.23 | 89 | 1016.2 |
| 20260506183043 | 13 | 345 | 11.3 | 22.5 | 0.00 | 0.23 | 0.23 | 89 | 1013.9 |
| 20260506182819 | 13 | 4 | 11.3 | 22.5 | 0.00 | 0.23 | 0.23 | 89 | 1015.4 |
| 20260506182535 | 13 | 359 | 8.0 | 20.9 | 0.00 | 0.23 | 0.23 | 89 | 1013.7 |
| 20260506182316 | 13 | 320 | 12.9 | 20.9 | 0.00 | 0.23 | 0.23 | 89 | 1015.5 |
| 20260506182018 | 12 | 354 | 11.3 | 20.9 | 0.00 | 0.23 | 0.23 | 89 | 1013.6 |
| 20260506181851 | 13 | 4 | 12.9 | 20.9 | 0.00 | 0.23 | 0.23 | 89 | 1015.4 |
| 20260506181551 | 12 | 308 | 11.3 | 20.9 | 0.00 | 0.23 | 0.23 | 89 | 1013.5 |
| 20260506181325 | 13 | 323 | 12.9 | 20.9 | 0.00 | 0.23 | 0.23 | 89 | 1015.5 |
| 20260506181042 | 12 | 10 | 11.3 | 24.1 | 0.00 | 0.23 | 0.23 | 89 | 1013.5 |
| 20260506180822 | 13 | 359 | 14.5 | 24.1 | 0.00 | 0.23 | 0.23 | 89 | 1015.4 |
| 20260506180534 | 12 | 345 | 14.5 | 24.1 | 0.00 | 0.23 | 0.23 | 89 | 1013.7 |
| 20260506180317 | 13 | 318 | 14.5 | 24.1 | 0.00 | 0.23 | 0.23 | 89 | 1015.7 |
| 20260506180020 | 12 | 330 | 8.0 | 22.5 | 0.00 | 0.23 | 0.23 | 89 | 1013.6 |
| 20260506175833 | 13 | 349 | 11.3 | 24.1 | 0.00 | 0.23 | 0.23 | 89 | 1015.8 |
| 20260506175515 | 12 | 347 | 16.1 | 24.1 | 0.00 | 0.23 | 0.23 | 89 | 1014.1 |
| 20260506175329 | 13 | 348 | 16.1 | 24.1 | 0.00 | 0.23 | 0.23 | 89 | 1015.8 |
| 20260506175003 | 12 | 341 | 9.7 | 27.4 | 0.00 | 0.23 | 0.23 | 90 | 1013.3 |
| 20260506174826 | 13 | 4 | 14.5 | 27.4 | 0.00 | 0.23 | 0.23 | 89 | 1015.4 |
| 20260506174558 | 12 | 341 | 19.3 | 27.4 | 0.00 | 0.23 | 0.23 | 89 | 1013.9 |
| 20260506174323 | 13 | 334 | 17.7 | 27.4 | 0.00 | 0.23 | 0.23 | 90 | 1016.0 |
| 20260506174049 | 13 | 344 | 14.5 | 25.7 | 0.00 | 0.23 | 0.23 | 90 | 1013.9 |
| 20260506173819 | 13 | 320 | 14.5 | 25.7 | 0.00 | 0.23 | 0.23 | 90 | 1015.9 |
| 20260506173543 | 13 | 359 | 11.3 | 25.7 | 0.00 | 0.23 | 0.23 | 90 | 1013.7 |
| 20260506173314 | 13 | 343 | 9.7 | 25.7 | 0.00 | 0.23 | 0.23 | 90 | 1015.3 |
| 20260506173033 | 13 | 15 | 8.0 | 25.7 | 0.00 | 0.23 | 0.23 | 90 | 1013.2 |
| 20260506172827 | 13 | 14 | 14.5 | 25.7 | 0.00 | 0.23 | 0.23 | 90 | 1015.3 |
| 20260506172513 | 13 | 14 | 9.7 | 24.1 | 0.00 | 0.23 | 0.23 | 90 | 1013.2 |
| 20260506172323 | 13 | 359 | 8.0 | 24.1 | 0.00 | 0.23 | 0.23 | 90 | 1014.9 |
| 20260506172005 | 13 | 319 | 11.3 | 24.1 | 0.00 | 0.23 | 0.23 | 90 | 1013.5 |
| 20260506171821 | 13 | 359 | 16.1 | 24.1 | 0.00 | 0.23 | 0.23 | 90 | 1015.6 |
| 20260506171600 | 13 | 359 | 11.3 | 24.1 | 0.00 | 0.23 | 0.23 | 90 | 1013.6 |
| 20260506171316 | 13 | 359 | 12.9 | 22.5 | 0.00 | 0.23 | 0.23 | 90 | 1015.3 |
| 20260506171049 | 13 | 307 | 12.9 | 22.5 | 0.00 | 0.23 | 0.23 | 90 | 1013.1 |
| 20260506170833 | 13 | 359 | 11.3 | 22.5 | 0.00 | 0.23 | 0.23 | 90 | 1014.8 |
| 20260506170543 | 13 | 359 | 12.9 | 22.5 | 0.00 | 0.23 | 0.23 | 90 | 1012.7 |
| 20260506170329 | 13 | 359 | 12.9 | 22.5 | 0.00 | 0.23 | 0.23 | 90 | 1014.7 |
| 20260506170037 | 13 | 359 | 16.1 | 22.5 | 0.00 | 0.23 | 0.23 | 91 | 1012.8 |
| 20260506165826 | 13 | 318 | 9.7 | 17.7 | 0.00 | 0.23 | 0.23 | 91 | 1014.7 |
| 20260506165538 | 13 | 359 | 8.0 | 17.7 | 0.00 | 0.23 | 0.23 | 91 | 1012.7 |
| 20260506165322 | 13 | 359 | 8.0 | 17.7 | 0.00 | 0.23 | 0.23 | 91 | 1014.7 |
| 20260506165027 | 13 | 359 | 9.7 | 17.7 | 0.00 | 0.23 | 0.23 | 92 | 1012.3 |
| 20260506164817 | 13 | 359 | 11.3 | 17.7 | 0.00 | 0.23 | 0.23 | 92 | 1014.2 |
| 20260506164549 | 13 | 17 | 8.0 | 17.7 | 0.00 | 0.23 | 0.23 | 92 | 1012.1 |
| 20260506164331 | 13 | 359 | 8.0 | 17.7 | 0.00 | 0.23 | 0.23 | 92 | 1014.1 |
| 20260506164043 | 12 | 4 | 6.4 | 16.1 | 0.00 | 0.23 | 0.23 | 91 | 1012.2 |
| 20260506163848 | 13 | 16 | 8.0 | 16.1 | 0.00 | 0.23 | 0.23 | 91 | 1014.4 |
| 20260506163513 | 12 | 359 | 11.3 | 16.1 | 0.00 | 0.23 | 0.23 | 91 | 1012.4 |
| 20260506163322 | 13 | 4 | 8.0 | 16.1 | 0.00 | 0.23 | 0.23 | 92 | 1014.7 |
| 20260506163003 | 12 | 14 | 4.8 | 12.9 | 0.03 | 0.23 | 0.23 | 92 | 1012.8 |
| 20260506162818 | 13 | 354 | 6.4 | 12.9 | 0.03 | 0.23 | 0.23 | 92 | 1014.8 |
| 20260506162553 | 12 | 359 | 4.8 | 11.3 | 0.03 | 0.23 | 0.23 | 91 | 1012.6 |
| 20260506162315 | 12 | 354 | 6.4 | 16.1 | 0.03 | 0.23 | 0.23 | 91 | 1014.6 |
| 20260506162045 | 12 | 332 | 4.8 | 16.1 | 0.05 | 0.23 | 0.23 | 91 | 1012.5 |
| 20260506161829 | 12 | 27 | 4.8 | 16.1 | 0.05 | 0.23 | 0.23 | 91 | 1014.2 |
| 20260506161542 | 12 | 79 | 8.0 | 16.1 | 0.05 | 0.23 | 0.23 | 92 | 1012.2 |
| 20260506161327 | 12 | 154 | 6.4 | 17.7 | 0.05 | 0.23 | 0.23 | 92 | 1014.0 |
| 20260506161032 | 12 | 84 | 4.8 | 17.7 | 0.05 | 0.23 | 0.23 | 92 | 1011.8 |
| 20260506160822 | 12 | 59 | 8.0 | 22.5 | 0.05 | 0.23 | 0.23 | 92 | 1013.7 |
| 20260506160527 | 12 | 124 | 9.7 | 22.5 | 0.05 | 0.23 | 0.23 | 91 | 1011.8 |
| 20260506160318 | 12 | 85 | 9.7 | 25.7 | 0.08 | 0.23 | 0.23 | 91 | 1013.7 |
| 20260506160012 | 12 | 122 | 9.7 | 25.7 | 0.10 | 0.23 | 0.23 | 91 | 1011.9 |
| 20260506155854 | 12 | 137 | 9.7 | 25.7 | 0.10 | 0.23 | 0.23 | 91 | 1013.8 |
| 20260506155539 | 12 | 97 | 12.9 | 25.7 | 0.15 | 0.23 | 0.23 | 92 | 1011.5 |
| 20260506155329 | 12 | 57 | 11.3 | 20.9 | 0.18 | 0.23 | 0.23 | 92 | 1013.7 |
| 20260506155034 | 12 | 97 | 11.3 | 22.5 | 0.20 | 0.23 | 0.23 | 92 | 1011.5 |
| 20260506154825 | 12 | 110 | 11.3 | 22.5 | 0.20 | 0.23 | 0.23 | 92 | 1013.1 |
| 20260506154531 | 12 | 76 | 12.9 | 22.5 | 0.20 | 0.23 | 0.23 | 92 | 1011.0 |
| 20260506154323 | 12 | 63 | 11.3 | 19.3 | 0.20 | 0.23 | 0.23 | 91 | 1013.1 |
| 20260506154010 | 12 | 66 | 8.0 | 22.5 | 0.20 | 0.23 | 0.23 | 91 | 1011.8 |
| 20260506153820 | 12 | 124 | 9.7 | 22.5 | 0.20 | 0.23 | 0.23 | 91 | 1014.3 |
| 20260506153559 | 12 | 77 | 11.3 | 22.5 | 0.20 | 0.23 | 0.23 | 91 | 1011.9 |
| 20260506153336 | 12 | 93 | 8.0 | 16.1 | 0.20 | 0.23 | 0.23 | 91 | 1014.0 |
| 20260506153030 | 12 | 77 | 6.4 | 24.1 | 0.18 | 0.20 | 0.20 | 91 | 1013.0 |
| 20260506152832 | 12 | 23 | 3.2 | 24.1 | 0.18 | 0.20 | 0.20 | 91 | 1015.4 |
| 20260506152518 | 12 | 333 | 11.3 | 24.1 | 0.18 | 0.20 | 0.20 | 91 | 1013.0 |
| 20260506152327 | 12 | 342 | 16.1 | 24.1 | 0.18 | 0.20 | 0.20 | 91 | 1014.2 |
| 20260506152005 | 12 | 22 | 12.9 | 20.9 | 0.15 | 0.18 | 0.18 | 91 | 1012.7 |
| 20260506151824 | 12 | 359 | 9.7 | 16.1 | 0.15 | 0.18 | 0.18 | 91 | 1015.1 |
| 20260506151601 | 12 | 303 | 1.6 | 22.5 | 0.15 | 0.18 | 0.18 | 91 | 1013.7 |
| 20260506151321 | 12 | 57 | 9.7 | 22.5 | 0.15 | 0.18 | 0.18 | 91 | 1015.6 |
| 20260506151053 | 12 | 359 | 12.9 | 20.9 | 0.15 | 0.18 | 0.18 | 91 | 1013.3 |
| 20260506150817 | 12 | 27 | 9.7 | 19.3 | 0.15 | 0.18 | 0.18 | 91 | 1015.5 |
| 20260506150545 | 12 | 20 | 9.7 | 22.5 | 0.13 | 0.15 | 0.18 | 91 | 1013.6 |
| 20260506150334 | 12 | 4 | 8.0 | 24.1 | 0.13 | 0.15 | 0.15 | 91 | 1015.5 |
| 20260506150009 | 12 | 4 | 11.3 | 27.4 | 0.10 | 0.13 | 0.13 | 91 | 1013.5 |
| 20260506145830 | 12 | 26 | 11.3 | 27.4 | 0.08 | 0.10 | 0.10 | 91 | 1015.5 |
| 20260506145603 | 12 | 33 | 11.3 | 27.4 | 0.03 | 0.05 | 0.08 | 91 | 1013.3 |
| 20260506145325 | 12 | 30 | 14.5 | 25.7 | 0.03 | 0.05 | 0.05 | 91 | 1015.6 |
| 20260506145052 | 12 | 4 | 14.5 | 30.6 | 0.00 | 0.03 | 0.03 | 91 | 1013.9 |
| 20260506144820 | 13 | 322 | 17.7 | 30.6 | 0.00 | 0.03 | 0.03 | 90 | 1015.9 |
| 20260506144548 | 12 | 349 | 16.1 | 30.6 | 0.00 | 0.03 | 0.03 | 90 | 1013.3 |
| 20260506144315 | 13 | 315 | 17.7 | 30.6 | 0.00 | 0.03 | 0.03 | 91 | 1015.2 |
| 20260506144037 | 13 | 12 | 12.9 | 29.0 | 0.00 | 0.03 | 0.03 | 90 | 1012.7 |
| 20260506143827 | 13 | 14 | 14.5 | 29.0 | 0.00 | 0.03 | 0.03 | 90 | 1014.7 |
| 20260506143601 | 13 | 345 | 16.1 | 29.0 | 0.00 | 0.03 | 0.03 | 90 | 1012.8 |
| 20260506143323 | 13 | 4 | 16.1 | 29.0 | 0.00 | 0.03 | 0.03 | 90 | 1014.9 |
| 20260506143053 | 13 | 348 | 9.7 | 25.7 | 0.00 | 0.03 | 0.03 | 90 | 1012.9 |
| 20260506142819 | 13 | 34 | 14.5 | 25.7 | 0.00 | 0.03 | 0.03 | 89 | 1014.8 |
| 20260506142542 | 13 | 29 | 14.5 | 24.1 | 0.00 | 0.03 | 0.03 | 89 | 1012.5 |
| 20260506142402 | 13 | 8 | 14.5 | 25.7 | 0.00 | 0.03 | 0.03 | 89 | 1014.8 |
| 20260506142013 | 13 | 10 | 14.5 | 25.7 | 0.00 | 0.03 | 0.03 | 89 | 1012.7 |
| 20260506141830 | 14 | 26 | 12.9 | 25.7 | 0.00 | 0.03 | 0.03 | 88 | 1014.7 |
| 20260506141501 | 14 | 335 | 16.1 | 25.7 | 0.00 | 0.03 | 0.03 | 88 | 1012.8 |
| 20260506141325 | 14 | 359 | 14.5 | 27.4 | 0.00 | 0.03 | 0.03 | 88 | 1015.1 |
| 20260506141035 | 14 | 326 | 17.7 | 27.4 | 0.00 | 0.03 | 0.03 | 88 | 1012.7 |
| 20260506140841 | 15 | 359 | 16.1 | 27.4 | 0.00 | 0.03 | 0.03 | 88 | 1014.9 |
| 20260506140601 | 14 | 25 | 12.9 | 27.4 | 0.00 | 0.03 | 0.03 | 88 | 1012.6 |
| 20260506140316 | 15 | 344 | 12.9 | 27.4 | 0.00 | 0.03 | 0.03 | 87 | 1014.5 |
| 20260506140059 | 14 | 4 | 16.1 | 27.4 | 0.00 | 0.03 | 0.03 | 87 | 1012.2 |
| 20260506135831 | 15 | 39 | 12.9 | 25.7 | 0.00 | 0.03 | 0.03 | 87 | 1014.3 |
| 20260506135541 | 15 | 4 | 9.7 | 24.1 | 0.00 | 0.03 | 0.03 | 88 | 1012.2 |
| 20260506135327 | 15 | 350 | 9.7 | 24.1 | 0.00 | 0.03 | 0.03 | 88 | 1014.5 |
| 20260506135032 | 15 | 8 | 11.3 | 24.1 | 0.00 | 0.03 | 0.03 | 87 | 1012.2 |
| 20260506134824 | 15 | 4 | 16.1 | 24.1 | 0.00 | 0.03 | 0.03 | 87 | 1014.6 |
| 20260506134525 | 15 | 36 | 14.5 | 25.7 | 0.00 | 0.03 | 0.03 | 87 | 1012.1 |
| 20260506134320 | 15 | 354 | 16.1 | 25.7 | 0.00 | 0.03 | 0.03 | 87 | 1014.1 |
| 20260506134019 | 15 | 19 | 11.3 | 25.7 | 0.00 | 0.03 | 0.03 | 87 | 1011.4 |
| 20260506133835 | 15 | 38 | 16.1 | 25.7 | 0.00 | 0.03 | 0.03 | 87 | 1013.4 |
| 20260506133541 | 15 | 25 | 9.7 | 22.5 | 0.00 | 0.03 | 0.03 | 88 | 1010.9 |
| 20260506133350 | 15 | 81 | 12.9 | 22.5 | 0.00 | 0.03 | 0.03 | 88 | 1013.0 |